Location: LDNL
(36.4545°S, 141.6685°E)
Time: 11:48:57
(UTC+10:00)

Vanguard 3 - Pass Details

Date: 26 January 2022
Orbit: 508 x 3258 km, 33.3° (Epoch: 25 May)

Event Time Altitude Azimuth Distance (km) Brightness Sun altitude
Rises 00:46:38 0° 313° (NW) 3,859 - -32.9°
Reaches altitude 10° 00:48:57 10° 319° (NW) 3,176 - -33.1°
Maximum altitude 00:56:51 48° 31° (NNE) 2,204 - -33.5°
Exits shadow 01:00:25 39° 71° (ENE) 2,763 9.5 -33.6°
Drops below altitude 10° 01:10:32 10° 98° (E) 5,374 11.3 -34.1°
Sets 01:15:44 0° 102° (ESE) 6,739 11.9 -34.2°
